Location: Broekland
(52.3610°N, 6.2005°E)
Time: 16:22:27
(UTC+00:00)

Cosmos 2333 Rocket - Pass Details

Date: 19 May 2025
Orbit: 840 x 862 km, 70.8° (Epoch: 17 June)

Event Time Altitude Azimuth Distance (km) Brightness Sun altitude
Rises 20:18:19 0° 323° (NW) 3,447 7.7 -6.4°
Reaches altitude 10° 20:21:45 10° 344° (NNW) 2,504 5.8 -6.7°
Maximum altitude 20:25:24 17° 24° (NNE) 2,050 4.5 -7.1°
Drops below altitude 10° 20:29:02 10° 63° (ENE) 2,491 4.5 -7.5°
Sets 20:32:26 0° 84° (E) 3,419 5.0 -7.9°
